TimeMST,TemperatureF,Dew PointF,Humidity,Sea Level PressureIn,VisibilityMPH,Wind Direction,Wind SpeedMPH,Gust SpeedMPH,PrecipitationIn,Events,Conditions,WindDirDegrees,DateUTC
12:15 AM,30.2,28.4,93,29.74,5.0,SW,10.4,-,N/A,,Partly Cloudy,230,2012-12-27 07:15:00
12:35 AM,30.2,28.4,93,29.74,5.0,SW,10.4,-,N/A,,Partly Cloudy,230,2012-12-27 07:35:00
12:55 AM,30.2,26.6,86,29.74,10.0,SW,8.1,-,N/A,,Scattered Clouds,230,2012-12-27 07:55:00
1:15 AM,30.2,28.4,93,29.74,10.0,SW,9.2,-,N/A,,Mostly Cloudy,230,2012-12-27 08:15:00
1:35 AM,30.2,28.4,93,29.74,10.0,SSW,11.5,-,N/A,,Overcast,210,2012-12-27 08:35:00
1:55 AM,30.2,26.6,86,29.75,7.0,SSW,8.1,-,N/A,,Overcast,200,2012-12-27 08:55:00
2:15 AM,30.2,28.4,93,29.75,2.5,Calm,Calm,-,N/A,,Overcast,0,2012-12-27 09:15:00
2:55 AM,28.4,26.6,93,29.76,2.5,SSW,8.1,-,N/A,,Overcast,200,2012-12-27 09:55:00
3:15 AM,30.2,26.6,86,29.76,5.0,SW,11.5,-,N/A,,Overcast,220,2012-12-27 10:15:00
3:35 AM,30.2,26.6,86,29.76,7.0,SW,12.7,-,N/A,,Overcast,230,2012-12-27 10:35:00
4:15 AM,28.4,26.6,93,29.76,10.0,WSW,9.2,-,N/A,,Overcast,240,2012-12-27 11:15:00
4:35 AM,28.4,26.6,93,29.75,4.0,SW,12.7,-,N/A,,Overcast,220,2012-12-27 11:35:00
4:55 AM,28.4,26.6,93,29.76,2.0,WNW,9.2,-,N/A,,Overcast,290,2012-12-27 11:55:00
5:15 AM,28.4,26.6,93,29.76,3.0,WNW,9.2,-,N/A,,Overcast,290,2012-12-27 12:15:00
5:35 AM,28.4,24.8,86,29.77,4.0,WNW,12.7,-,N/A,,Overcast,300,2012-12-27 12:35:00
5:55 AM,26.6,24.8,93,29.77,3.0,NW,16.1,-,N/A,,Overcast,310,2012-12-27 12:55:00
6:15 AM,26.6,24.8,93,29.78,6.0,NW,12.7,-,N/A,,Overcast,310,2012-12-27 13:15:00
6:50 AM,26.6,24.8,93,29.79,6.0,WNW,13.8,-,N/A,Snow,Snow,300,2012-12-27 13:50:00
6:55 AM,26.6,23.0,86,29.79,9.0,WNW,16.1,-,N/A,,Overcast,300,2012-12-27 13:55:00
7:50 AM,26.6,21.2,80,29.82,6.0,WNW,11.5,-,N/A,Snow,Light Snow,300,2012-12-27 14:50:00
8:50 AM,26.6,21.2,80,29.83,8.0,NW,13.8,-,N/A,Snow,Light Snow,310,2012-12-27 15:50:00
9:50 AM,26.6,21.2,80,29.87,10.0,WNW,16.1,-,N/A,Snow,Light Snow,300,2012-12-27 16:50:00
10:59 AM,26.6,21.2,80,29.87,10.0,WNW,10.4,-,N/A,,Mostly Cloudy,300,2012-12-27 17:59:00
11:58 AM,26.6,21.2,80,29.87,10.0,WNW,17.3,-,N/A,,Mostly Cloudy,300,2012-12-27 18:58:00
1:50 PM,28.4,21.2,74,29.87,10.0,WNW,11.5,-,N/A,Snow,Light Snow,300,2012-12-27 20:50:00
2:55 PM,28.4,19.4,69,29.89,10.0,WNW,9.2,-,N/A,,Mostly Cloudy,300,2012-12-27 21:55:00
3:53 PM,26.6,19.4,74,29.92,10.0,WNW,11.5,-,N/A,,Mostly Cloudy,300,2012-12-27 22:53:00
4:52 PM,26.6,19.4,74,29.94,15.0,WNW,11.5,-,N/A,,Mostly Cloudy,290,2012-12-27 23:52:00
5:50 PM,26.6,19.4,74,29.96,15.0,WNW,10.4,-,N/A,,Mostly Cloudy,290,2012-12-28 00:50:00
6:50 PM,26.6,21.2,80,29.98,15.0,West,11.5,-,N/A,,Overcast,280,2012-12-28 01:50:00
7:55 PM,26.6,21.2,80,30.00,15.0,West,11.5,-,N/A,,Mostly Cloudy,270,2012-12-28 02:55:00
8:50 PM,26.6,21.2,80,30.01,15.0,West,16.1,-,N/A,,Mostly Cloudy,270,2012-12-28 03:50:00
8:55 PM,26.6,21.2,80,30.02,10.0,West,13.8,-,N/A,,Partly Cloudy,280,2012-12-28 03:55:00
9:15 PM,26.6,21.2,80,30.03,10.0,West,10.4,-,N/A,,Mostly Cloudy,280,2012-12-28 04:15:00
9:35 PM,26.6,21.2,80,30.03,10.0,WNW,8.1,-,N/A,,Overcast,290,2012-12-28 04:35:00
9:55 PM,26.6,21.2,80,30.03,10.0,WNW,10.4,-,N/A,,Overcast,300,2012-12-28 04:55:00
10:35 PM,26.6,21.2,80,30.04,10.0,WNW,10.4,-,N/A,,Overcast,300,2012-12-28 05:35:00
10:55 PM,26.6,21.2,80,30.05,10.0,WNW,9.2,-,N/A,,Overcast,300,2012-12-28 05:55:00
11:15 PM,26.6,21.2,80,30.05,10.0,NW,9.2,-,N/A,,Overcast,320,2012-12-28 06:15:00
11:35 PM,26.6,21.2,80,30.06,10.0,NNW,3.5,-,N/A,,Overcast,340,2012-12-28 06:35:00